Regional Weather Roundup
Issued by NWS

Home | Current Version | Previous Version | Graphics & Text | Print | Product List | Glossary On
Versions: 1 2 3 4 5 6 7 8 9 10 11 12 13 14 15 16 17 18 19 20 21 22 23 24 25 26 27 28 29 30 31 32 33 34 35 36 37 38 39 40 41 42 43 44 45 46 47 48 49 50
511
ASUS45 KTFX 281210
RWRMT
MONTANA REGIONAL WEATHER ROUNDUP
NATIONAL WEATHER SERVICE GREAT FALLS MT
600 AM MDT THU JUL 28 2016

NOTE: "FAIR" INDICATES FEW OR NO CLOUDS BELOW 12000 FEET WITH NO
SIGNIFICANT WEATHER AND/OR OBSTRUCTIONS TO VISIBILITY.

MTZ001>007-043-281300-
WEST OF THE DIVIDE

CITY           SKY/WX    TMP DP  RH WIND       PRES   REMARKS
KALISPELL      CLEAR     56  53  90 N8        30.15R
MISSOULA       PTCLDY    61  48  62 N6        30.15S
BUTTE          CLEAR     50  42  74 S5        30.29R
MULLAN PASS    CLEAR     64  42  44 CALM      30.28S
DEER LODGE       N/A     55  50  82 CALM      30.26R
EUREKA           N/A     52  52 100 CALM      30.19R
HAMILTON         N/A     55  46  71 CALM      30.17R
LIBBY            N/A     54  48  82 CALM      30.16R
RONAN            N/A     53  49  86 CALM      30.18S
$$

MTZ008-052>055-281300-
SOUTHWEST MONTANA

CITY           SKY/WX    TMP DP  RH WIND       PRES   REMARKS
BOZEMAN        CLEAR     57  52  83 NW3       30.23R
DILLON         CLEAR     50  47  89 SW6       30.24R
W YELLOWSTONE  CLOUDY    41  41 100 CALM      30.34S
ENNIS          CLEAR     48  43  81 E3        30.30S
THREE FORKS      N/A     53  10  18 CALM      30.19R
TWIN BRIDGES     N/A     57  45  64 E7        30.19S
$$

MTZ009-010-012-014-046-048-049-054-281300-
EAST SLOPES AND CENTRAL MONTANA

CITY           SKY/WX    TMP DP  RH WIND       PRES   REMARKS
CUT BANK       PTCLDY    56  54  93 N5        30.20S
GREAT FALLS    CLOUDY    59  50  72 E5        30.19S
MALMSTROM AFB  MOCLDY    57  54  92 SE3       30.19F
HELENA         PTCLDY    60  51  72 CALM      30.19S
CHOTEAU          N/A     57  54  88 S8        30.22R
$$

MTZ011-013-016-021-045-047-050-051-281300-
NORTH CENTRAL MONTANA

CITY           SKY/WX    TMP DP  RH WIND       PRES   REMARKS
HAVRE          CLEAR     55  53  93 CALM      30.17S
N BAR RANCH      N/A     54  50  87 CALM      30.25R
CHINOOK          N/A     55  55 100 CALM      30.17S
$$

MTZ017>020-022>027-061-062-281300-
NORTHEAST MONTANA

CITY           SKY/WX    TMP DP  RH WIND       PRES   REMARKS
GLASGOW        CLEAR     57  54  89 VRB5      30.17R
JORDAN           N/A     60  59  96 N6        30.16R
SIDNEY         CLOUDY    63  60  90 NE6       30.15R
WOLF POINT     CLOUDY    61  60  97 CALM      30.18R
PLENTYWOOD       N/A     55  55 100 E3        30.17R VSB 0
$$

MTZ028>42-056>058-281300-
SOUTHCENTRAL AND SOUTHEAST MONTANA

CITY           SKY/WX    TMP DP  RH WIND       PRES   REMARKS
BAKER          CLOUDY    59  58  96 E6        30.14R
BILLINGS       CLOUDY    61  57  87 NW8       30.18R
LIVINGSTON     CLOUDY    56  52  86 S3        30.24R
MILES CITY     MOCLDY    60  57  89 NW3       30.14R
FORSYTH          N/A     61  61 100 SW3       30.15R
LAUREL           N/A     61  54  77 W9        30.15F
ROUNDUP          N/A     60  55  83 CALM      30.10S
$$

REGIONAL REPORTS...DAKOTAS

CITY           SKY/WX    TMP DP  RH WIND       PRES   REMARKS
WILLISTON      CLEAR     60  58  92 N6        30.16R
MINOT          CLOUDY    62  57  83 NE5       30.16S
DICKINSON      RAIN      59  59 100 E12       30.13S FOG
BEACH          FOG       59  59 100 E3        30.17R VSB<1/4
CROSBY         FOG       48  48 100 CALM      30.20R VSB<1/4
WATFORD CITY     N/A    N/A N/A N/A MISG        N/A
BISMARCK       CLOUDY    63  59  87 E7        30.15R
GRAND FORKS    CLOUDY    58  56  93 N5        30.11R
FARGO          CLOUDY    63  60  90 N5        30.08R
BUFFALO SD       N/A     61  60  97 NE7       30.06F
RAPID CITY     PTCLDY    59  57  93 W8        30.08R
$$

REGIONAL REPORTS...WYOMING/IDAHO/WASHINGTON

CITY           SKY/WX    TMP DP  RH WIND       PRES   REMARKS
GILLETTE       RAIN      61  60  97 W20       30.22R
SHERIDAN       CLOUDY    60  57  89 W6        30.20F
BUFFALO WY     LGT RAIN  60  51  72 N6        30.21F
CODY           CLOUDY    61  54  77 N12       30.29S
YELLOWSTONE LA   N/A     42  42 100 NW3       30.41R
IDAHO FALLS    CLEAR     55  46  71 N10       30.16R
SALMON         CLEAR     54  45  71 CALM      30.16R
BOISE          CLEAR     66  45  46 CALM      30.04R
SPOKANE        PTCLDY    70  51  51 NE5       30.08R
$$

REGIONAL REPORTS...ALBERTA

CITY           SKY/WX    TMP DP  RH WIND       PRES   REMARKS
EDMONTON       CLEAR     61  55  82 S6        30.12R
CALGARY        PTCLDY    54  50  87 NW2       30.19S
LETHBRIDGE     MOCLDY    55  54  94 SW6       30.17R
MEDICINE HAT   CLEAR     59  59 100 CALM      30.15R
WATERTON GATE    N/A     50  48  93 S8          N/A
CARDSTON         N/A     55  50  82 SW3         N/A
MILK RIVER       N/A     55  54  94 CALM        N/A
$$

REGIONAL REPORTS...SASKATCHEWAN

CITY           SKY/WX    TMP DP  RH WIND       PRES   REMARKS
SWIFT CURRENT  CLEAR     52  50  93 S7        30.17S
REGINA         PTCLDY    54  52  94 SE8       30.19R
SASKATOON      PTCLDY    55  55 100 SW5       30.17R
CYPRESS HILLS    N/A     54  50  87 S5          N/A
VAL MARIE        N/A     50  48  93 N1          N/A
ROCKGLEN         N/A     55  54  94 S2          N/A
ASSINIBOIA       N/A     55  55 100 S3          N/A
$$




USA.gov is the U.S. government's official web portal to all federal, state and local government web resources and services.